TimeCST,TemperatureF,Dew PointF,Humidity,Sea Level PressureIn,VisibilityMPH,Wind Direction,Wind SpeedMPH,Gust SpeedMPH,PrecipitationIn,Events,Conditions,WindDirDegrees,DateUTC
12:53 AM,46.9,39.0,74,30.42,10.0,ENE,6.9,-,0.00,Rain,Light Rain,70,2013-01-10 06:53:00
1:53 AM,46.0,39.0,76,30.39,8.0,ENE,11.5,-,0.01,Rain,Light Rain,70,2013-01-10 07:53:00
2:53 AM,45.0,39.9,82,30.38,8.0,East,9.2,-,0.01,Rain,Light Rain,90,2013-01-10 08:53:00
3:53 AM,46.0,41.0,83,30.33,8.0,East,11.5,-,0.02,Rain,Light Rain,90,2013-01-10 09:53:00
4:53 AM,46.0,43.0,89,30.30,6.0,East,11.5,-,0.02,Rain,Light Rain,100,2013-01-10 10:53:00
5:22 AM,46.4,44.6,93,30.29,5.0,East,12.7,-,0.04,Rain,Light Rain,90,2013-01-10 11:22:00
5:29 AM,46.4,42.8,87,30.28,6.0,East,12.7,-,0.04,Rain,Light Rain,100,2013-01-10 11:29:00
5:39 AM,46.4,44.6,93,30.29,5.0,East,11.5,-,0.05,Rain,Light Rain,90,2013-01-10 11:39:00
5:48 AM,46.4,44.6,93,30.28,6.0,East,10.4,-,0.05,Rain,Light Rain,90,2013-01-10 11:48:00
5:53 AM,46.0,44.1,93,30.28,7.0,East,13.8,-,0.05,Rain,Light Rain,90,2013-01-10 11:53:00
6:15 AM,46.4,44.6,93,30.27,7.0,East,11.5,-,0.01,,Overcast,90,2013-01-10 12:15:00
6:53 AM,46.0,44.1,93,30.27,6.0,East,12.7,-,0.01,,Overcast,90,2013-01-10 12:53:00
7:53 AM,46.9,46.0,97,30.27,4.0,East,12.7,-,0.01,Rain,Light Rain,100,2013-01-10 13:53:00
8:18 AM,48.2,46.4,93,30.26,2.0,East,13.8,-,0.03,Rain,Rain,100,2013-01-10 14:18:00
8:25 AM,48.2,46.4,93,30.25,1.5,East,13.8,-,N/A,Rain,Heavy Rain,100,2013-01-10 14:25:00
8:36 AM,48.2,46.4,93,30.25,2.0,ESE,12.7,-,0.10,Rain,Rain,110,2013-01-10 14:36:00
8:43 AM,48.2,46.4,93,30.25,1.5,ESE,12.7,-,N/A,Rain,Light Rain,110,2013-01-10 14:43:00
8:48 AM,48.2,46.4,93,30.25,3.0,ESE,12.7,-,0.16,Rain,Light Rain,110,2013-01-10 14:48:00
8:53 AM,48.9,46.9,93,30.26,3.0,ESE,10.4,-,0.16,Rain,Light Rain,110,2013-01-10 14:53:00
9:02 AM,48.2,48.2,100,30.26,1.8,ESE,9.2,-,0.02,Rain,Rain,110,2013-01-10 15:02:00
9:18 AM,48.2,48.2,100,30.25,2.0,ESE,9.2,-,0.11,Rain,Rain,110,2013-01-10 15:18:00
9:29 AM,50.0,48.2,94,30.25,4.0,ESE,9.2,-,0.12,Rain,Light Rain,110,2013-01-10 15:29:00
9:53 AM,50.0,48.9,96,30.24,1.8,East,6.9,-,0.13,Rain,Rain,100,2013-01-10 15:53:00
10:08 AM,50.0,48.2,94,30.23,2.5,East,5.8,-,0.04,Rain,Light Rain,100,2013-01-10 16:08:00
10:15 AM,50.0,48.2,94,30.23,4.0,East,6.9,-,0.04,,Overcast,100,2013-01-10 16:15:00
10:53 AM,52.0,51.1,97,30.21,4.0,ESE,8.1,-,0.05,Rain,Light Rain,110,2013-01-10 16:53:00
11:53 AM,55.9,54.0,93,30.14,7.0,SE,8.1,-,0.00,,Overcast,130,2013-01-10 17:53:00
12:53 PM,57.9,55.9,93,30.12,5.0,ESE,5.8,-,0.00,Rain,Light Rain,120,2013-01-10 18:53:00
1:43 PM,59.0,57.2,94,30.10,1.8,SE,8.1,-,0.02,Rain,Heavy Rain,130,2013-01-10 19:43:00
1:50 PM,59.0,57.2,94,30.10,3.0,SE,6.9,-,0.02,Rain,Light Rain,140,2013-01-10 19:50:00
1:53 PM,59.0,57.0,93,30.10,3.0,SE,6.9,-,0.02,Rain,Light Rain,140,2013-01-10 19:53:00
2:07 PM,59.0,57.2,94,30.09,2.0,SE,6.9,-,0.03,Rain,Light Rain,130,2013-01-10 20:07:00
2:18 PM,59.0,57.2,94,30.09,4.0,SE,8.1,-,0.03,,Overcast,130,2013-01-10 20:18:00
2:53 PM,61.0,59.0,93,30.06,6.0,SE,10.4,-,0.03,,Overcast,140,2013-01-10 20:53:00
3:53 PM,63.0,60.1,90,30.01,7.0,SE,16.1,23.0,N/A,,Overcast,140,2013-01-10 21:53:00
4:17 PM,62.6,60.8,94,29.99,7.0,SE,15.0,25.3,N/A,,Overcast,140,2013-01-10 22:17:00
4:53 PM,63.0,60.1,90,29.97,8.0,SE,16.1,23.0,0.01,,Overcast,140,2013-01-10 22:53:00
5:05 PM,64.4,60.8,88,29.97,10.0,SE,13.8,23.0,N/A,,Overcast,140,2013-01-10 23:05:00
5:53 PM,64.0,60.1,87,29.94,10.0,SE,17.3,25.3,N/A,,Partly Cloudy,140,2013-01-10 23:53:00
6:15 PM,64.4,60.8,88,29.93,10.0,SSE,11.5,-,N/A,,Mostly Cloudy,150,2013-01-11 00:15:00
6:53 PM,64.0,60.1,87,29.92,10.0,SSE,12.7,20.7,N/A,,Mostly Cloudy,150,2013-01-11 00:53:00
7:53 PM,64.9,60.1,84,29.94,10.0,SSE,13.8,23.0,N/A,,Overcast,160,2013-01-11 01:53:00
8:53 PM,64.9,60.1,84,29.93,10.0,SSE,11.5,19.6,N/A,,Overcast,160,2013-01-11 02:53:00
9:17 PM,64.4,60.8,88,29.91,7.0,SSE,10.4,-,0.00,Rain,Light Rain,150,2013-01-11 03:17:00
9:53 PM,64.4,60.8,88,29.90,9.0,SSE,15.0,23.0,N/A,,Overcast,160,2013-01-11 03:53:00
10:12 PM,64.4,60.8,88,29.89,2.0,South,9.2,-,0.10,Rain,Heavy Rain,180,2013-01-11 04:12:00
10:25 PM,64.4,60.8,88,29.88,4.0,SSE,11.5,20.7,0.15,Rain,Light Rain,160,2013-01-11 04:25:00
10:53 PM,64.9,61.0,87,29.89,2.5,SW,11.5,29.9,0.21,Rain,Rain,220,2013-01-11 04:53:00
10:56 PM,64.4,62.6,94,29.90,1.5,SSW,19.6,31.1,N/A,Rain,Heavy Rain,210,2013-01-11 04:56:00
11:04 PM,62.6,60.8,94,29.89,1.2,SW,17.3,31.1,0.28,Rain,Heavy Rain,220,2013-01-11 05:04:00
11:09 PM,62.6,60.8,94,29.89,2.0,SW,20.7,39.1,0.31,Rain,Heavy Rain,220,2013-01-11 05:09:00
11:17 PM,62.6,60.8,94,29.88,5.0,SW,18.4,32.2,N/A,Rain,Rain,220,2013-01-11 05:17:00
11:22 PM,62.6,60.8,94,29.87,4.0,SW,15.0,29.9,0.35,Rain,Rain,230,2013-01-11 05:22:00
11:31 PM,62.6,60.8,94,29.87,5.0,WSW,25.3,34.5,0.37,Rain,Rain,240,2013-01-11 05:31:00
11:53 PM,60.8,55.4,82,29.86,10.0,SW,15.0,26.5,N/A,Rain,Light Rain,230,2013-01-11 05:53:00